Flag for Laos Weather past 2 weeks in Vientiane, Laos

Now
81 °F

Broken clouds.


Feels Like: 85 °F
Forecast: 74 / 82 °F
Wind: 5 mph from Southeast

Location: Vientiane Airport

Current Time: Sep 1, 2015 at 1:41:14 PM

Latest Report: Sep 1, 2015 at 12:00 PM


Visibility: 3 mi

Pressure: 29.74 "Hg

Humidity: 79%

Dew point: 73 °F

Location of VientianeLocation

Historic Weather in Vientiane — Graph

°F

Vientiane temperature yesterday

Maximum temperature yesterday: 82 °F (at 10:30 AM)
Minimum temperature yesterday: 75 °F (at 11:00 PM)
Average temperature yesterday: 80 °F

Past Weeks' High & Low Weather Summary

 TemperatureHumidityPressure
High95 °F (Aug 17, 2:30 PM)100% (Aug 31, 6:00 AM)29.83 "Hg (Aug 31, 6:00 AM)
Low75 °F (Aug 21, 6:00 AM)53% (Aug 17, 2:30 PM)29.56 "Hg (Aug 24, 5:00 PM)
Average85 °F76%29.70 "Hg
* Reported Aug 17 12:00 Noon — Sep 1 12:00 Noon, Vientiane, Weather by CustomWeather, © 2015

Note: Actual official high and low records may vary slightly from our data, if they occured in-between our weather recording intervals... More about our weather records

Advertising

Vientiane weather history for previous 24 hours

 ConditionsComfort  
Time TempWeatherWind HumidityBarometerVisibility
12:00 PM
Tue, Sep 1
81 °FBroken clouds.5 mph79%29.74 "Hg3 mi
11:30 AM81 °FBroken clouds.2 mph84%29.74 "HgN/A
10:30 AM81 °FPartly sunny.2 mph84%29.74 "HgN/A
10:00 AM81 °FPartly sunny.5 mph84%29.74 "HgN/A
9:00 AM79 °FPartly sunny.5 mph89%29.74 "HgN/A
8:30 AM79 °FBroken clouds.2 mph89%29.71 "HgN/A
8:00 AM79 °FBroken clouds.2 mph89%29.71 "HgN/A
7:30 AM79 °FPartly sunny.2 mph89%29.68 "HgN/A
7:00 AM77 °FPartly sunny.2 mph94%29.68 "HgN/A
6:30 AM79 °FFog.2 mph89%29.71 "Hg3 mi
6:00 AM79 °FFog.2 mph89%29.68 "Hg3 mi
11:00 PM
Mon, Aug 31
75 °FPassing clouds.2 mph94%29.77 "Hg1 mi
10:00 PM77 °FRain. Passing clouds.2 mph94%29.74 "Hg1 mi
9:00 PM77 °FRain. Passing clouds.2 mph94%29.71 "Hg1 mi
8:30 PM79 °FRain. Partly cloudy.2 mph94%29.71 "Hg2 mi
8:00 PM79 °FPartly cloudy.2 mph94%29.71 "Hg2 mi
7:00 PM79 °FPartly cloudy.2 mph94%29.68 "Hg2 mi
6:30 PM81 °FFog.5 mph89%29.68 "Hg3 mi
6:00 PM81 °FPartly sunny.5 mph89%29.68 "Hg4 mi
2:30 PM82 °FDrizzle. Partly sunny.2 mph89%29.71 "Hg4 mi
2:00 PM82 °FDrizzle. Partly sunny.2 mph89%29.71 "Hg4 mi
1:30 PM82 °FBroken clouds.5 mph84%29.74 "Hg4 mi
1:00 PM82 °FBroken clouds.5 mph84%29.74 "Hg4 mi
Weather by CustomWeather, © 2015

See weather overviewHow to use our weather pages